Location: Rounton
(54.4000°N, 1.3500°W)
Time: 07:58:12
(UTC+00:00)

Vanguard 1 Rocket - Pass Details

Date: 06 December 2021
Orbit: 651 x 4224 km, 34.3° (Epoch: 19 January)

Event Time Altitude Azimuth Distance (km) Brightness Sun altitude
Rises 03:43:55 0° 238° (WSW) 4,844 - -37.2°
Reaches altitude 10° 03:46:56 10° 229° (SW) 4,246 - -36.8°
Exits shadow 03:53:21 30° 197° (SSW) 3,649 10.1 -35.9°
Maximum altitude 03:57:38 35° 170° (S) 3,846 10.4 -35.3°
Drops below altitude 10° 04:15:16 10° 115° (ESE) 6,958 12.5 -32.8°
Sets 04:22:09 0° 109° (ESE) 8,299 13.2 -31.8°
